Skip Page Navigation
NASA JPL Caltech
NASA Logo - Jet Propulsion Laboratory + View the NASA Portal
+ Near-Earth Object (NEO) Program
Search JPL
JPL Home Earth Solar System Stars & Galaxies Technology
JPL Solar System Dynamics
BODIES ORBITS EPHEMERIDES TOOLS PHYSICAL DATA DISCOVERY FAQ SITE MAP
JPL Small-Body Database Browser
Search: [ help ]  
9819 Sangerhausen (2172 T-1)
Classification: Main-belt Asteroid          SPK-ID: 2009819
Ephemeris | Orbit Diagram | Orbital Elements | Physical Parameters | Discovery Circumstances | Close-Approach Data ]

[ show orbit diagram ]
Orbital Elements at Epoch 2457600.5 (2016-Jul-31.0) TDB
Reference: JPL 18 (heliocentric ecliptic J2000)
 Element Value Uncertainty (1-sigma)   Units 
e .1805015801126805 3.9019e-08  
a 2.189246901945679 9.2661e-09 au
q 1.794084376887694 8.4546e-08 au
i 2.453538058198987 4.4436e-06 deg
node 56.66989754029196 0.00010813 deg
peri 244.9830515539864 0.0001095 deg
M 262.1394420213807 2.026e-05 deg
tp 2457922.121986093564
(2017-Jun-17.62198609)
6.7683e-05 JED
period 1183.152001023533
3.24
7.5116e-06
2.057e-08
d
yr
n .3042719783160301 1.9318e-09 deg/d
Q 2.584409427003665 1.0939e-08 au
  Orbit Determination Parameters
   # obs. used (total)      1195  
   data-arc span      16451 days (45.04 yr)  
   first obs. used      1971-03-24  
   last obs. used      2016-04-07  
   planetary ephem.      DE431  
   SB-pert. ephem.      SB431-BIG16  
   condition code      0  
   fit RMS      .54463  
   data source      ORB  
   producer      Otto Matic  
   solution date      2016-Apr-25 13:06:27  

Additional Information
 Earth MOID = .779954 au 
 Jupiter MOID = 2.62443 au 
 T_jup = 3.652 
[ show covariance matrix ]

Ephemeris | Orbit Diagram | Orbital Elements | Physical Parameters | Discovery Circumstances | Close-Approach Data ]

Physical Parameter Table
Parameter Symbol Value Units Sigma Reference Notes
absolute magnitude H 14.9 mag n/a MPO313498  

9819 Sangerhausen           Discovered 1971 Mar. 25 by C. J. van Houten and I. van Houten-Groeneveld on Palomar Schmidt plates taken by T. Gehrels.
In the vicinity of the German city of Sangerhausen, a remarkable archaeological object was unearthed. This 4000-year-old bronze disc shows a quasi-real starry sky. Its similarity to Homer's Iliad 18, 484--486 is striking. The name was suggested by W. Schlosser and L. D. Schmadel.
NOTE: some special characters may not display properly (any characters within {} are an attempt to place the proper accent above a character)
Reference: 20021120/MPCPages.arcLast Updated: 2003-10-02

[ show close-approach data ]
Alternate Designations
 2172 T-1 = 1981 JV5 = 1997 GY15 
Ephemeris | Orbit Diagram | Orbital Elements | Physical Parameters | Discovery Circumstances | Close-Approach Data ]
ABOUT SSD CREDITS/AWARDS PRIVACY/COPYRIGHT GLOSSARY LINKS
FirstGov 2016-May-04 17:23 UT
(server date/time)  
NASA Home Page
Site Manager:   Ryan S. Park
Webmaster  Alan B. Chamberlin